Time,TemperatureF,DewpointF,PressureIn,WindDirection,WindDirectionDegrees,WindSpeedMPH,WindSpeedGustMPH,Humidity,HourlyPrecipIn,Conditions,Clouds,dailyrainin,SoftwareType,DateUTC
2013-02-27 00:02:00,41.7,41.5,28.77,NE,45,3.0,3.0,99,0.00,,,1.06,meteohub,2013-02-27 05:02:00,
2013-02-27 00:07:00,41.7,41.5,28.77,NE,45,2.0,3.0,99,0.00,,,0.00,meteohub,2013-02-27 05:07:00,
2013-02-27 00:12:00,41.9,41.7,28.77,NE,45,5.0,5.0,99,0.00,,,0.00,meteohub,2013-02-27 05:12:00,
2013-02-27 00:17:00,41.9,41.7,28.77,NE,45,5.0,5.0,99,0.00,,,0.00,meteohub,2013-02-27 05:17:00,
2013-02-27 00:22:00,42.1,41.9,28.77,NE,45,4.0,5.0,99,0.00,,,0.00,meteohub,2013-02-27 05:22:00,
2013-02-27 00:27:00,41.9,41.7,28.77,NE,45,6.0,6.0,99,0.00,,,0.00,meteohub,2013-02-27 05:27:00,
2013-02-27 00:32:00,41.9,41.7,28.76,NE,45,5.0,6.0,99,0.00,,,0.00,meteohub,2013-02-27 05:32:00,
2013-02-27 00:37:00,41.9,41.7,28.76,NE,45,5.0,6.0,99,0.00,,,0.00,meteohub,2013-02-27 05:37:00,
2013-02-27 00:42:00,42.3,42.1,28.76,NE,45,3.0,6.0,99,0.00,,,0.00,meteohub,2013-02-27 05:42:00,
2013-02-27 00:47:00,42.1,41.9,28.77,NE,45,2.0,5.0,99,0.00,,,0.00,meteohub,2013-02-27 05:47:00,
2013-02-27 00:52:00,41.9,41.7,28.76,NW,315,2.0,5.0,99,0.00,,,0.00,meteohub,2013-02-27 05:52:00,
2013-02-27 00:57:00,41.9,41.7,28.76,NW,315,2.0,3.0,99,0.00,,,0.00,meteohub,2013-02-27 05:57:00,
2013-02-27 01:02:00,41.5,41.4,28.75,West,270,2.0,3.0,99,0.00,,,0.00,meteohub,2013-02-27 06:02:00,
2013-02-27 01:07:00,41.4,41.2,28.76,SE,135,2.0,2.0,99,0.00,,,0.00,meteohub,2013-02-27 06:07:00,
2013-02-27 01:12:00,41.2,41.0,28.75,NE,45,2.0,2.0,99,0.00,,,0.00,meteohub,2013-02-27 06:12:00,
2013-02-27 01:17:00,41.2,41.0,28.75,NE,45,2.0,2.0,99,0.00,,,0.00,meteohub,2013-02-27 06:17:00,
2013-02-27 01:22:00,41.2,41.0,28.74,NE,45,2.0,2.0,99,0.00,,,0.00,meteohub,2013-02-27 06:22:00,
2013-02-27 01:57:00,40.5,40.3,28.74,East,90,1.0,2.0,99,0.00,,,0.00,meteohub,2013-02-27 06:57:00,
2013-02-27 02:02:00,40.5,40.3,28.75,East,90,1.0,2.0,99,0.00,,,0.00,meteohub,2013-02-27 07:02:00,
2013-02-27 02:07:00,40.5,40.3,28.75,SW,225,1.0,2.0,99,0.00,,,0.00,meteohub,2013-02-27 07:07:00,
2013-02-27 02:12:00,40.5,40.3,28.75,SW,225,1.0,1.0,99,0.00,,,0.00,meteohub,2013-02-27 07:12:00,
2013-02-27 02:22:00,40.3,40.1,28.75,SE,135,0.0,1.0,99,0.00,,,0.00,meteohub,2013-02-27 07:22:00,
2013-02-27 02:27:00,40.3,40.1,28.75,SE,135,0.0,1.0,99,0.00,,,0.00,meteohub,2013-02-27 07:27:00,
2013-02-27 02:32:00,40.3,40.1,28.75,SE,135,0.0,0.0,99,0.00,,,0.00,meteohub,2013-02-27 07:32:00,
2013-02-27 02:37:00,40.1,39.9,28.75,SE,135,0.0,0.0,99,0.00,,,0.00,meteohub,2013-02-27 07:37:00,
2013-02-27 02:42:00,40.1,39.9,28.74,SE,135,0.0,0.0,99,0.00,,,0.00,meteohub,2013-02-27 07:42:00,
2013-02-27 02:47:00,40.1,39.9,28.75,East,90,2.0,0.0,99,0.00,,,0.00,meteohub,2013-02-27 07:47:00,
2013-02-27 02:52:00,40.1,39.9,28.74,East,90,2.0,2.0,99,0.00,,,0.00,meteohub,2013-02-27 07:52:00,
2013-02-27 02:57:00,40.3,40.1,28.74,East,90,1.0,2.0,99,0.00,,,0.00,meteohub,2013-02-27 07:57:00,
2013-02-27 03:02:00,40.3,40.1,28.74,East,90,3.0,3.0,99,0.00,,,0.00,meteohub,2013-02-27 08:02:00,
2013-02-27 03:07:00,40.5,40.3,28.74,NE,45,2.0,3.0,99,0.00,,,0.00,meteohub,2013-02-27 08:07:00,
2013-02-27 03:12:00,40.3,40.1,28.74,SW,225,2.0,3.0,99,0.00,,,0.00,meteohub,2013-02-27 08:12:00,
2013-02-27 03:17:00,40.3,40.1,28.74,SW,225,2.0,3.0,99,0.00,,,0.00,meteohub,2013-02-27 08:17:00,
2013-02-27 03:22:00,40.1,39.9,28.73,SE,135,0.0,3.0,99,0.00,,,0.00,meteohub,2013-02-27 08:22:00,
2013-02-27 03:27:00,40.1,39.9,28.74,SE,135,0.0,3.0,99,0.00,,,0.00,meteohub,2013-02-27 08:27:00,
2013-02-27 03:32:00,40.1,39.9,28.74,SE,135,0.0,2.0,99,0.00,,,0.00,meteohub,2013-02-27 08:32:00,
2013-02-27 04:32:00,38.5,38.3,28.74,SE,135,0.0,0.0,99,0.00,,,0.00,meteohub,2013-02-27 09:32:00,
2013-02-27 04:37:00,38.5,38.3,28.74,SE,135,0.0,0.0,99,0.00,,,0.00,meteohub,2013-02-27 09:37:00,
2013-02-27 04:42:00,38.5,38.3,28.75,SE,135,0.0,0.0,99,0.00,,,0.00,meteohub,2013-02-27 09:42:00,
2013-02-27 04:52:00,37.2,36.5,28.76,East,90,0.0,0.0,97,0.00,,,0.00,meteohub,2013-02-27 09:52:00,
2013-02-27 04:57:00,37.2,36.5,28.76,East,90,0.0,0.0,97,0.00,,,0.00,meteohub,2013-02-27 09:57:00,
2013-02-27 05:02:00,37.2,36.5,28.76,East,90,0.0,0.0,97,0.00,,,0.00,meteohub,2013-02-27 10:02:00,
2013-02-27 06:32:00,37.4,37.2,28.79,SW,225,4.0,-999.0,99,-99.99,,,0.00,meteohub,2013-02-27 11:32:00,
2013-02-27 06:37:00,37.4,37.2,28.79,SW,225,4.0,4.0,99,0.00,,,0.00,meteohub,2013-02-27 11:37:00,
2013-02-27 06:42:00,37.2,36.5,28.79,North,0,2.0,4.0,97,0.00,,,0.00,meteohub,2013-02-27 11:42:00,
2013-02-27 06:47:00,37.2,36.5,28.79,North,0,2.0,4.0,97,0.00,,,0.00,meteohub,2013-02-27 11:47:00,
2013-02-27 06:52:00,37.2,36.5,28.79,North,0,2.0,4.0,97,0.00,,,0.00,meteohub,2013-02-27 11:52:00,
2013-02-27 07:42:00,36.1,35.4,28.82,SE,135,2.0,-999.0,97,0.00,,,0.00,meteohub,2013-02-27 12:42:00,
2013-02-27 07:47:00,36.1,35.4,28.82,SE,135,2.0,2.0,97,0.00,,,0.00,meteohub,2013-02-27 12:47:00,
2013-02-27 08:12:00,44.2,43.7,28.83,SE,135,11.0,-999.0,98,0.00,,,0.00,meteohub,2013-02-27 13:12:00,
2013-02-27 08:17:00,44.2,43.7,28.83,SE,135,11.0,11.0,98,0.00,,,0.00,meteohub,2013-02-27 13:17:00,
2013-02-27 08:37:00,48.4,40.1,28.85,West,270,4.0,11.0,73,0.00,,,0.00,meteohub,2013-02-27 13:37:00,
2013-02-27 08:42:00,48.6,41.0,28.84,South,180,11.0,11.0,75,0.00,,,0.00,meteohub,2013-02-27 13:42:00,
2013-02-27 08:47:00,48.6,41.0,28.84,South,180,11.0,11.0,75,0.00,,,0.00,meteohub,2013-02-27 13:47:00,
2013-02-27 10:02:00,51.4,37.2,28.85,South,180,17.0,17.0,58,0.00,,,0.00,meteohub,2013-02-27 15:02:00,
2013-02-27 10:07:00,50.9,35.8,28.86,South,180,13.0,17.0,56,0.00,,,0.00,meteohub,2013-02-27 15:07:00,
2013-02-27 10:12:00,52.3,36.7,28.86,South,180,8.0,17.0,55,0.00,,,0.00,meteohub,2013-02-27 15:12:00,
2013-02-27 10:17:00,54.1,37.4,28.85,West,270,4.0,17.0,53,0.00,,,0.00,meteohub,2013-02-27 15:17:00,
2013-02-27 10:22:00,54.9,37.6,28.86,South,180,15.0,17.0,52,0.00,,,0.00,meteohub,2013-02-27 15:22:00,
2013-02-27 10:27:00,53.1,36.9,28.86,NW,315,7.0,17.0,54,0.00,,,0.00,meteohub,2013-02-27 15:27:00,
2013-02-27 10:32:00,54.3,35.6,28.86,East,90,4.0,17.0,49,0.00,,,0.00,meteohub,2013-02-27 15:32:00,
2013-02-27 10:37:00,54.3,34.0,28.86,SSE,158,8.0,17.0,46,0.00,,,0.00,meteohub,2013-02-27 15:37:00,
2013-02-27 10:42:00,52.2,32.5,28.87,South,180,11.0,14.0,47,0.00,,,0.00,meteohub,2013-02-27 15:42:00,
2013-02-27 10:52:00,53.4,33.6,28.87,South,180,7.0,16.0,47,0.00,,,0.00,meteohub,2013-02-27 15:52:00,
2013-02-27 10:57:00,54.3,34.0,28.87,South,180,11.0,16.0,46,0.00,,,0.00,meteohub,2013-02-27 15:57:00,
2013-02-27 11:02:00,54.9,34.0,28.87,South,180,5.0,15.0,45,0.00,,,0.00,meteohub,2013-02-27 16:02:00,
2013-02-27 11:07:00,56.1,35.1,28.87,SE,135,10.0,15.0,45,0.00,,,0.00,meteohub,2013-02-27 16:07:00,
2013-02-27 11:12:00,55.0,34.2,28.87,South,180,8.0,15.0,45,0.00,,,0.00,meteohub,2013-02-27 16:12:00,
2013-02-27 11:17:00,55.6,34.5,28.86,South,180,8.0,15.0,45,0.00,,,0.00,meteohub,2013-02-27 16:17:00,
2013-02-27 11:27:00,59.4,32.4,28.87,South,180,8.0,12.0,36,0.00,,,0.00,meteohub,2013-02-27 16:27:00,
2013-02-27 11:32:00,59.9,34.2,28.87,West,270,6.0,10.0,38,0.00,,,0.00,meteohub,2013-02-27 16:32:00,
2013-02-27 11:37:00,57.2,33.1,28.87,South,180,9.0,10.0,40,0.00,,,0.00,meteohub,2013-02-27 16:37:00,
2013-02-27 11:47:00,55.9,33.3,28.87,SE,135,4.0,11.0,42,0.00,,,0.00,meteohub,2013-02-27 16:47:00,
2013-02-27 11:57:00,56.7,35.6,28.87,East,90,4.0,8.0,45,0.00,,,0.00,meteohub,2013-02-27 16:57:00,
2013-02-27 12:07:00,54.5,32.5,28.87,SW,225,3.0,11.0,43,0.00,,,0.00,meteohub,2013-02-27 17:07:00,
2013-02-27 12:12:00,55.0,32.4,28.86,South,180,6.0,11.0,42,0.00,,,0.00,meteohub,2013-02-27 17:12:00,
2013-02-27 12:17:00,53.8,31.8,28.86,SE,135,11.0,15.0,43,0.00,,,0.00,meteohub,2013-02-27 17:17:00,
2013-02-27 12:27:00,55.9,34.3,28.86,South,180,13.0,16.0,44,0.00,,,0.00,meteohub,2013-02-27 17:27:00,
2013-02-27 12:32:00,56.7,32.5,28.86,East,90,12.0,16.0,40,0.00,,,0.00,meteohub,2013-02-27 17:32:00,
2013-02-27 12:37:00,56.1,33.3,28.86,SE,135,15.0,17.0,42,0.00,,,0.00,meteohub,2013-02-27 17:37:00,
2013-02-27 12:42:00,53.6,31.6,28.86,South,180,6.0,17.0,43,0.00,,,0.00,meteohub,2013-02-27 17:42:00,
2013-02-27 12:47:00,52.9,32.2,28.85,South,180,14.0,17.0,45,0.00,,,0.00,meteohub,2013-02-27 17:47:00,
2013-02-27 12:52:00,53.2,31.8,28.86,South,180,9.0,17.0,44,0.00,,,0.00,meteohub,2013-02-27 17:52:00,
2013-02-27 12:57:00,55.6,35.1,28.86,SE,135,9.0,17.0,46,0.00,,,0.00,meteohub,2013-02-27 17:57:00,
2013-02-27 13:02:00,54.0,32.0,28.86,South,180,9.0,17.0,43,0.00,,,0.00,meteohub,2013-02-27 18:02:00,
2013-02-27 13:07:00,55.9,32.5,28.86,South,180,9.0,17.0,41,0.00,,,0.00,meteohub,2013-02-27 18:07:00,
2013-02-27 13:12:00,55.4,32.7,28.86,West,270,11.0,17.0,42,0.00,,,0.00,meteohub,2013-02-27 18:12:00,
2013-02-27 13:22:00,57.0,31.6,28.85,South,180,20.0,20.0,38,0.00,,,0.00,meteohub,2013-02-27 18:22:00,
2013-02-27 13:27:00,54.1,31.5,28.85,South,180,6.0,20.0,42,0.00,,,0.00,meteohub,2013-02-27 18:27:00,
2013-02-27 13:37:00,52.9,31.6,28.85,South,180,11.0,20.0,44,0.00,,,0.00,meteohub,2013-02-27 18:37:00,
2013-02-27 13:42:00,55.0,33.4,28.85,SE,135,9.0,20.0,44,0.00,,,0.00,meteohub,2013-02-27 18:42:00,
2013-02-27 13:47:00,54.9,33.4,28.85,SW,225,4.0,20.0,44,0.00,,,0.00,meteohub,2013-02-27 18:47:00,
2013-02-27 13:52:00,53.4,32.0,28.85,East,90,8.0,15.0,44,0.00,,,0.00,meteohub,2013-02-27 18:52:00,
2013-02-27 13:57:00,53.1,31.6,28.85,South,180,11.0,15.0,44,0.00,,,0.00,meteohub,2013-02-27 18:57:00,
2013-02-27 14:02:00,52.3,31.6,28.85,SE,135,14.0,15.0,45,0.00,,,0.00,meteohub,2013-02-27 19:02:00,
2013-02-27 14:07:00,52.0,31.8,28.85,East,90,14.0,14.0,46,0.00,,,0.00,meteohub,2013-02-27 19:07:00,
2013-02-27 14:12:00,51.6,32.0,28.85,East,90,11.0,15.0,47,0.00,,,0.00,meteohub,2013-02-27 19:12:00,
2013-02-27 14:17:00,51.6,32.0,28.85,East,90,10.0,15.0,47,0.00,,,0.00,meteohub,2013-02-27 19:17:00,
2013-02-27 14:22:00,51.8,31.6,28.85,South,180,8.0,15.0,46,0.00,,,0.00,meteohub,2013-02-27 19:22:00,
2013-02-27 14:27:00,52.0,31.8,28.85,SE,135,17.0,17.0,46,0.00,,,0.00,meteohub,2013-02-27 19:27:00,
2013-02-27 14:32:00,52.5,32.4,28.85,South,180,16.0,17.0,46,0.00,,,0.00,meteohub,2013-02-27 19:32:00,
2013-02-27 14:37:00,52.3,31.6,28.85,East,90,15.0,17.0,45,0.00,,,0.00,meteohub,2013-02-27 19:37:00,
2013-02-27 14:47:00,53.8,32.4,28.86,West,270,17.0,18.0,44,0.00,,,0.00,meteohub,2013-02-27 19:47:00,
2013-02-27 14:52:00,52.9,31.6,28.85,SE,135,12.0,18.0,44,0.00,,,0.00,meteohub,2013-02-27 19:52:00,
2013-02-27 14:57:00,54.9,33.4,28.85,South,180,8.0,17.0,44,0.00,,,0.00,meteohub,2013-02-27 19:57:00,
2013-02-27 15:02:00,55.9,32.5,28.85,SE,135,15.0,17.0,41,0.00,,,0.00,meteohub,2013-02-27 20:02:00,
2013-02-27 15:12:00,56.1,32.7,28.85,SE,135,11.0,18.0,41,0.00,,,0.00,meteohub,2013-02-27 20:12:00,
2013-02-27 15:17:00,55.8,31.1,28.85,South,180,15.0,18.0,39,0.00,,,0.00,meteohub,2013-02-27 20:17:00,
2013-02-27 15:22:00,53.8,31.3,28.86,SE,135,11.0,18.0,42,0.00,,,0.00,meteohub,2013-02-27 20:22:00,
2013-02-27 15:27:00,52.9,30.9,28.86,SSE,158,14.0,17.0,43,0.00,,,0.00,meteohub,2013-02-27 20:27:00,
2013-02-27 15:32:00,54.5,33.1,28.85,West,270,3.0,17.0,44,0.00,,,0.00,meteohub,2013-02-27 20:32:00,
2013-02-27 15:37:00,57.9,33.8,28.85,South,180,3.0,15.0,40,0.00,,,0.00,meteohub,2013-02-27 20:37:00,
2013-02-27 15:42:00,60.8,32.2,28.85,West,270,3.0,14.0,34,0.00,,,0.00,meteohub,2013-02-27 20:42:00,
2013-02-27 15:47:00,59.0,30.0,28.85,SE,135,11.0,15.0,33,0.00,,,0.00,meteohub,2013-02-27 20:47:00,
2013-02-27 15:52:00,54.7,30.2,28.85,South,180,11.0,15.0,39,0.00,,,0.00,meteohub,2013-02-27 20:52:00,
2013-02-27 15:57:00,54.5,31.3,28.85,SE,135,11.0,16.0,41,0.00,,,0.00,meteohub,2013-02-27 20:57:00,
2013-02-27 16:02:00,53.6,30.4,28.85,South,180,9.0,16.0,41,0.00,,,0.00,meteohub,2013-02-27 21:02:00,
2013-02-27 16:07:00,54.9,31.6,28.85,SE,135,9.0,16.0,41,0.00,,,0.00,meteohub,2013-02-27 21:07:00,
2013-02-27 16:17:00,53.4,30.9,28.85,SE,135,13.0,21.0,42,0.00,,,0.00,meteohub,2013-02-27 21:17:00,
2013-02-27 16:27:00,53.8,31.3,28.86,South,180,12.0,21.0,42,0.00,,,0.00,meteohub,2013-02-27 21:27:00,
2013-02-27 16:32:00,53.4,31.5,28.86,SE,135,10.0,17.0,43,0.00,,,0.00,meteohub,2013-02-27 21:32:00,
2013-02-27 16:37:00,54.3,31.1,28.85,SE,135,8.0,17.0,41,0.00,,,0.00,meteohub,2013-02-27 21:37:00,
2013-02-27 16:42:00,55.6,31.1,28.85,South,180,4.0,17.0,39,0.00,,,0.00,meteohub,2013-02-27 21:42:00,
2013-02-27 16:47:00,54.1,30.9,28.86,South,180,9.0,15.0,41,0.00,,,0.00,meteohub,2013-02-27 21:47:00,
2013-02-27 16:52:00,51.1,30.6,28.86,SE,135,12.0,13.0,45,0.00,,,0.00,meteohub,2013-02-27 21:52:00,
2013-02-27 16:57:00,50.4,31.5,28.85,SW,225,10.0,13.0,48,0.00,,,0.00,meteohub,2013-02-27 21:57:00,
2013-02-27 17:02:00,50.2,31.3,28.85,South,180,10.0,13.0,48,0.00,,,0.00,meteohub,2013-02-27 22:02:00,
2013-02-27 17:07:00,50.0,31.1,28.85,South,180,11.0,15.0,48,0.00,,,0.00,meteohub,2013-02-27 22:07:00,
2013-02-27 17:12:00,49.8,31.5,28.85,SE,135,14.0,17.0,49,0.00,,,0.00,meteohub,2013-02-27 22:12:00,
2013-02-27 17:17:00,49.8,31.5,28.86,South,180,10.0,17.0,49,0.00,,,0.00,meteohub,2013-02-27 22:17:00,
2013-02-27 17:22:00,50.0,31.1,28.87,South,180,8.0,17.0,48,0.00,,,0.00,meteohub,2013-02-27 22:22:00,
2013-02-27 17:27:00,50.4,30.9,28.86,SE,135,7.0,17.0,47,0.00,,,0.00,meteohub,2013-02-27 22:27:00,
2013-02-27 17:32:00,50.2,31.3,28.86,SW,225,8.0,12.0,48,0.00,,,0.00,meteohub,2013-02-27 22:32:00,
2013-02-27 17:37:00,49.8,31.5,28.87,SE,135,6.0,16.0,49,0.00,,,0.00,meteohub,2013-02-27 22:37:00,
2013-02-27 17:42:00,49.6,31.3,28.87,South,180,7.0,16.0,49,0.00,,,0.00,meteohub,2013-02-27 22:42:00,
2013-02-27 17:47:00,49.5,31.6,28.87,South,180,11.0,16.0,50,0.00,,,0.00,meteohub,2013-02-27 22:47:00,
2013-02-27 17:52:00,49.5,31.6,28.87,South,180,8.0,15.0,50,0.00,,,0.00,meteohub,2013-02-27 22:52:00,
2013-02-27 17:57:00,49.3,32.0,28.87,SE,135,8.0,15.0,51,0.00,,,0.00,meteohub,2013-02-27 22:57:00,
2013-02-27 18:02:00,49.1,31.8,28.87,South,180,17.0,17.0,51,0.00,,,0.00,meteohub,2013-02-27 23:02:00,
2013-02-27 18:07:00,48.7,31.8,28.87,SE,135,11.0,17.0,52,0.00,,,0.00,meteohub,2013-02-27 23:07:00,
2013-02-27 18:12:00,48.4,31.6,28.87,South,180,6.0,17.0,52,0.00,,,0.00,meteohub,2013-02-27 23:12:00,
2013-02-27 18:17:00,48.4,31.6,28.88,South,180,7.0,17.0,52,0.00,,,0.00,meteohub,2013-02-27 23:17:00,
2013-02-27 18:27:00,48.0,32.2,28.87,SW,225,4.0,9.0,54,0.00,,,0.00,meteohub,2013-02-27 23:27:00,
2013-02-27 18:37:00,47.8,32.0,28.87,SW,225,4.0,9.0,54,0.00,,,0.00,meteohub,2013-02-27 23:37:00,
2013-02-27 18:42:00,47.1,31.8,28.88,South,180,2.0,9.0,55,0.00,,,0.00,meteohub,2013-02-27 23:42:00,
2013-02-27 18:47:00,46.0,31.3,28.88,East,90,3.0,9.0,56,0.00,,,0.00,meteohub,2013-02-27 23:47:00,
2013-02-27 18:57:00,44.6,31.1,28.88,East,90,4.0,4.0,59,0.00,,,0.00,meteohub,2013-02-27 23:57:00,
2013-02-27 19:02:00,43.9,32.2,28.88,ENE,68,4.0,4.0,63,0.00,,,0.00,meteohub,2013-02-28 00:02:00,
2013-02-27 19:07:00,42.3,32.5,28.88,East,90,4.0,4.0,68,0.00,,,0.00,meteohub,2013-02-28 00:07:00,
2013-02-27 19:12:00,42.3,32.9,28.88,NE,45,5.0,5.0,69,0.00,,,0.00,meteohub,2013-02-28 00:12:00,
2013-02-27 19:17:00,42.3,32.9,28.88,East,90,4.0,5.0,69,0.00,,,0.00,meteohub,2013-02-28 00:17:00,
2013-02-27 19:22:00,41.9,32.9,28.88,East,90,4.0,7.0,70,0.00,,,0.00,meteohub,2013-02-28 00:22:00,
2013-02-27 19:27:00,41.4,32.7,28.88,SE,135,2.0,7.0,71,0.00,,,0.00,meteohub,2013-02-28 00:27:00,
2013-02-27 19:32:00,41.0,32.7,28.88,NNE,23,2.0,7.0,72,0.00,,,0.00,meteohub,2013-02-28 00:32:00,
2013-02-27 19:37:00,40.5,32.9,28.88,NE,45,3.0,4.0,74,0.00,,,0.00,meteohub,2013-02-28 00:37:00,
2013-02-27 19:42:00,39.9,32.7,28.88,East,90,6.0,6.0,75,0.00,,,0.00,meteohub,2013-02-28 00:42:00,
2013-02-27 19:47:00,40.1,33.1,28.88,East,90,5.0,6.0,76,0.00,,,0.00,meteohub,2013-02-28 00:47:00,
2013-02-27 19:52:00,41.2,33.3,28.88,ENE,68,4.0,7.0,73,0.00,,,0.00,meteohub,2013-02-28 00:52:00,
2013-02-27 19:57:00,41.5,32.9,28.87,NE,45,2.0,7.0,71,0.00,,,0.00,meteohub,2013-02-28 00:57:00,
2013-02-27 20:02:00,41.4,32.7,28.88,ESE,113,4.0,7.0,71,0.00,,,0.00,meteohub,2013-02-28 01:02:00,
2013-02-27 20:07:00,40.3,32.7,28.88,SE,135,3.0,4.0,74,0.00,,,0.00,meteohub,2013-02-28 01:07:00,
2013-02-27 20:12:00,39.2,32.5,28.88,East,90,4.0,4.0,77,0.00,,,0.00,meteohub,2013-02-28 01:12:00,
2013-02-27 20:17:00,39.2,32.9,28.88,East,90,4.0,4.0,78,0.00,,,0.00,meteohub,2013-02-28 01:17:00,
2013-02-27 20:22:00,39.7,32.7,28.88,East,90,4.0,4.0,76,0.00,,,0.00,meteohub,2013-02-28 01:22:00,
2013-02-27 20:27:00,40.1,33.1,28.88,NE,45,5.0,5.0,76,0.00,,,0.00,meteohub,2013-02-28 01:27:00,
2013-02-27 20:32:00,40.8,33.3,28.88,East,90,4.0,6.0,74,0.00,,,0.00,meteohub,2013-02-28 01:32:00,
2013-02-27 20:37:00,40.1,32.5,28.88,East,90,3.0,6.0,74,0.00,,,0.00,meteohub,2013-02-28 01:37:00,
2013-02-27 20:42:00,37.9,32.0,28.87,SE,135,3.0,6.0,79,0.00,,,0.00,meteohub,2013-02-28 01:42:00,
2013-02-27 20:47:00,38.7,33.3,28.87,NE,45,1.0,4.0,81,0.00,,,0.00,meteohub,2013-02-28 01:47:00,
2013-02-27 20:52:00,38.5,32.9,28.87,East,90,2.0,4.0,80,0.00,,,0.00,meteohub,2013-02-28 01:52:00,
2013-02-27 20:57:00,38.1,32.5,28.87,NE,45,2.0,4.0,80,0.00,,,0.00,meteohub,2013-02-28 01:57:00,
2013-02-27 21:02:00,38.1,32.7,28.87,NE,45,4.0,4.0,81,0.00,,,0.00,meteohub,2013-02-28 02:02:00,
2013-02-27 21:07:00,38.1,32.7,28.86,NE,45,4.0,4.0,81,0.00,,,0.00,meteohub,2013-02-28 02:07:00,
2013-02-27 21:12:00,37.8,32.7,28.87,East,90,4.0,4.0,82,0.00,,,0.00,meteohub,2013-02-28 02:12:00,
2013-02-27 21:17:00,37.9,32.7,28.87,SW,225,2.0,4.0,81,0.00,,,0.00,meteohub,2013-02-28 02:17:00,
2013-02-27 21:22:00,37.2,30.7,28.87,East,90,1.0,4.0,77,0.00,,,0.00,meteohub,2013-02-28 02:22:00,
2013-02-27 21:27:00,36.7,30.6,28.87,East,90,2.0,4.0,78,0.00,,,0.00,meteohub,2013-02-28 02:27:00,
2013-02-27 21:32:00,36.5,30.9,28.87,SW,225,0.0,3.0,80,0.00,,,0.00,meteohub,2013-02-28 02:32:00,
2013-02-27 21:37:00,36.3,31.1,28.87,West,270,2.0,2.0,81,0.00,,,0.00,meteohub,2013-02-28 02:37:00,
2013-02-27 21:42:00,36.5,31.3,28.87,East,90,0.0,2.0,81,0.00,,,0.00,meteohub,2013-02-28 02:42:00,
2013-02-27 21:47:00,36.7,31.6,28.87,NE,45,0.0,2.0,82,0.00,,,0.00,meteohub,2013-02-28 02:47:00,
2013-02-27 21:52:00,37.0,32.0,28.87,NE,45,4.0,4.0,82,0.00,,,0.00,meteohub,2013-02-28 02:52:00,
2013-02-27 21:57:00,37.2,32.2,28.87,SE,135,3.0,4.0,82,0.00,,,0.00,meteohub,2013-02-28 02:57:00,
2013-02-27 22:02:00,37.2,32.2,28.87,West,270,5.0,5.0,82,0.00,,,0.00,meteohub,2013-02-28 03:02:00,
2013-02-27 22:07:00,37.8,33.6,28.87,West,270,2.0,5.0,85,0.00,,,0.00,meteohub,2013-02-28 03:07:00,
2013-02-27 22:12:00,41.9,34.2,28.87,SW,225,4.0,11.0,74,0.00,,,0.00,meteohub,2013-02-28 03:12:00,
2013-02-27 22:17:00,43.5,32.9,28.86,SE,135,11.0,11.0,66,0.00,,,0.00,meteohub,2013-02-28 03:17:00,
2013-02-27 22:22:00,45.3,32.7,28.85,SW,225,8.0,14.0,61,0.00,,,0.00,meteohub,2013-02-28 03:22:00,
2013-02-27 22:27:00,45.9,32.4,28.85,SE,135,6.0,14.0,59,0.00,,,0.00,meteohub,2013-02-28 03:27:00,
2013-02-27 22:32:00,45.9,32.0,28.85,SE,135,9.0,14.0,58,0.00,,,0.00,meteohub,2013-02-28 03:32:00,
2013-02-27 22:37:00,46.0,32.0,28.85,SE,135,5.0,14.0,58,0.00,,,0.00,meteohub,2013-02-28 03:37:00,
2013-02-27 22:47:00,45.5,32.0,28.85,SE,135,8.0,11.0,59,0.00,,,0.00,meteohub,2013-02-28 03:47:00,
2013-02-27 22:52:00,45.5,32.0,28.84,South,180,12.0,12.0,59,0.00,,,0.00,meteohub,2013-02-28 03:52:00,
2013-02-27 23:02:00,45.3,32.2,28.84,North,0,5.0,12.0,60,0.00,,,0.00,meteohub,2013-02-28 04:02:00,
2013-02-27 23:07:00,45.3,32.2,28.84,North,0,5.0,12.0,60,0.00,,,0.00,meteohub,2013-02-28 04:07:00,
2013-02-27 23:12:00,45.1,32.9,28.84,South,180,10.0,10.0,62,0.00,,,0.00,meteohub,2013-02-28 04:12:00,
2013-02-27 23:17:00,45.1,32.9,28.84,SE,135,8.0,11.0,62,0.00,,,0.00,meteohub,2013-02-28 04:17:00,
2013-02-27 23:22:00,44.8,32.9,28.84,South,180,5.0,11.0,63,0.00,,,0.00,meteohub,2013-02-28 04:22:00,
2013-02-27 23:27:00,44.4,33.1,28.83,South,180,6.0,11.0,64,0.00,,,0.00,meteohub,2013-02-28 04:27:00,
2013-02-27 23:32:00,44.4,33.1,28.83,South,180,9.0,11.0,64,0.00,,,0.00,meteohub,2013-02-28 04:32:00,
2013-02-27 23:42:00,44.2,32.9,28.83,SW,225,3.0,14.0,64,0.00,,,0.00,meteohub,2013-02-28 04:42:00,
2013-02-27 23:47:00,44.1,33.1,28.83,East,90,8.0,14.0,65,0.00,,,0.00,meteohub,2013-02-28 04:47:00,
2013-02-27 23:52:00,44.2,32.9,28.82,South,180,4.0,14.0,64,0.00,,,0.00,meteohub,2013-02-28 04:52:00,